[[{"header":{"parameterUnit":"m.s-1","parameterCategory":1,"la1":30.2991,"la2":30.254,"lo1":-89.0895,"lo2":-89.0444,"dy":0.0017,"dx":0.0017,"nx":28,"ny":28,"refTime":"2024-04-15T09:00:00:Z","depth":0,"parameterNumber":2,"parameterNumberName":"U-component_of_WINDS"},"data":[0,0,0,0,0,0,0,0,0,0,0,0,0,0,0,0,0,0,0,0,0,0,0,0,0,0,0,0,0,0,0,0,0,0,0,0,0,0,0,0,0,0,0,0,0,0,0,0,0,0,0,0,0,0,0,0,0,0,-4.9647,-4.9648,0,-4.9772,-4.9774,-4.9775,-4.975,-4.9747,-4.9745,-4.9743,-4.9872,-4.9877,-4.9883,0,0,0,0,0,0,0,0,0,0,0,0,0,-4.9385,-4.939,-4.9647,-4.9648,-4.965,-4.9772,-4.9774,-4.9776,-4.975,-4.9747,-4.9745,-4.9742,-4.987,-4.9877,-4.9883,0,0,0,0,0,0,0,0,0,0,0,0,0,-4.9503,-4.9391,-4.9646,-4.9652,-4.9654,-4.9772,-4.9774,-4.9776,-4.9751,-4.9747,-4.9744,-4.9741,-4.9868,-4.9876,-4.9884,-5.0005,0,0,-4.991,-4.9913,0,0,0,0,0,0,0,0,-4.9497,-4.9513,-4.9649,-4.9652,-4.9654,-4.9742,-4.9729,-4.9853,-4.9752,-4.9714,-4.9743,-4.9739,-4.9831,-4.9843,-4.9874,-5.0011,-5.0016,-4.9911,-4.9916,-4.9919,-4.9922,0,0,0,0,0,0,0,-4.9488,-4.9507,-4.9696,-4.9651,-4.9654,-4.9648,-4.9661,-4.9752,-4.979,-4.9717,-4.9715,-4.9731,-4.9832,-4.9866,-4.9877,-5.0018,-4.991,-4.9918,-4.9923,-4.9926,-5.0261,-5.0264,0,0,0,0,0,0,-4.9478,-4.9501,-4.9692,-4.97,-4.9565,-4.9656,-4.967,-4.9717,-4.9789,-4.9797,-4.9733,-4.9729,-4.9853,-4.9867,-4.9881,-5.0026,-4.9919,-4.9927,-4.9932,-5.0257,-5.0262,-5.0266,0,0,0,0,0,0,-4.9473,-4.9496,-4.9687,-4.96,-4.9624,-4.9664,-4.9717,-4.9721,-4.9755,-4.9802,-4.9809,-4.9761,-4.9851,-4.9869,-4.9974,-5.003,-4.9931,-4.9938,-5.0252,-5.0258,-5.0264,-5.0318,0,0,0,0,0,0,-4.9465,-4.9494,-4.954,-4.9601,-4.9629,-4.9778,-4.972,-4.9726,-4.977,-4.9765,-4.9829,-4.9837,-4.985,-4.9962,-4.9983,-5.004,-4.9945,-5.0247,-5.0255,-5.0262,-5.0312,-5.0325,-5.0337,0,0,0,0,0,-4.9456,-4.955,-4.9542,-4.9566,-4.9687,-4.9782,-4.9797,-4.981,-4.9774,-4.9821,-4.9851,-4.9835,-5.0021,-4.9973,-4.9996,-5.0057,-5.0244,-5.0253,-5.0261,-5.0306,-5.0322,-5.0337,0,0,0,0,0,0,-4.9494,-4.9558,-4.955,-4.9667,-4.9719,-4.9777,-4.9836,-4.9828,-4.9891,-4.9884,-4.9897,-4.9912,-5.0019,-5.0049,-4.9993,-5.0177,-5.0128,-5.0141,-5.0153,-5.017,-5.0182,-5.0172,-4.9952,0,0,0,0,0,-4.9516,-4.9587,-4.964,-4.9738,-4.9765,-4.9796,-4.9838,-4.9843,-4.9898,-4.9919,-4.9957,-5.0011,-5.0081,-5.0128,-5.0195,-5.0317,-5.033,-5.037,-5.0383,-5.0393,-5.0404,-5.047,-5.0488,-5.0294,-5.0294,-5.0294,0,0,-4.9562,-4.9606,-4.965,-4.9747,-4.9788,-4.9861,-4.9815,-4.9894,-4.9949,-4.9932,-5.0032,-5.0063,-5.0123,-5.0237,-5.0289,-5.0265,-5.0461,-5.0404,-5.0412,-5.0417,-5.048,-5.0499,-5.0515,-5.03,-5.0299,-5.0298,0,0,-4.9683,-4.9724,-4.981,-4.9852,-4.9915,-4.9935,-4.9956,-5.0016,-5.0035,-5.0137,-5.0125,-5.0191,-5.0312,-5.0356,-5.0394,-5.0533,-5.052,-5.0555,-5.062,-5.0684,-5.0699,-5.0713,-5.0761,-5.0778,-5.0566,-5.0566,-5.0566,0,-4.9732,-4.9842,-4.9855,-4.9936,-4.9979,-4.9967,-5.0054,-5.0094,-5.0176,-5.0206,-5.0178,-5.0331,-5.0371,-5.0494,-5.0528,-5.056,-5.0583,-5.0546,-5.0696,-5.071,-5.0722,-5.0769,-5.0787,-5.057,-5.057,-5.0569,-5.0569,0,-4.9899,-4.9976,-5.0038,-5.0116,-5.0166,-5.025,-5.0276,-5.0325,-5.0326,-5.035,-5.0454,-5.0502,-5.0579,-5.0609,-5.0612,-5.0733,-5.0716,-5.0693,-5.0642,-5.0744,-5.0788,-5.0806,-5.0575,-5.0574,-5.0573,-5.0572,0,0,-5.0046,-5.0131,-5.0154,-5.0189,-5.0258,-5.0318,-5.0401,-5.0476,-5.0518,-5.0575,-5.0645,-5.0749,-5.0727,-5.077,-5.0778,-5.0835,-5.094,-5.0804,-5.0806,-5.0826,-5.1076,-5.1092,-5.1112,-5.0933,-5.0936,-5.0939,-5.107,0,-5.0172,-5.0318,-5.0333,-5.0464,-5.0534,-5.0525,-5.0597,-5.0648,-5.0672,-5.0736,-5.0763,-5.0836,-5.0803,-5.0829,-5.0885,-5.0915,-5.099,-5.0907,-5.0997,-5.1,-5.098,-5.1135,-5.1152,-5.1273,-5.1087,-5.109,-5.1092,0,-5.0338,-5.04,-5.0538,-5.0597,-5.0627,-5.0692,-5.0762,-5.0823,-5.088,-5.0894,-5.0943,-5.0943,-5.1029,-5.0977,-5.1096,-5.1039,-5.1077,-5.1098,-5.1103,-5.111,-5.1051,-5.1145,-5.1312,-5.1329,-5.112,-5.1117,-5.1116,0,-5.0429,-5.0547,-5.0645,-5.0676,-5.0747,-5.0793,-5.0825,-5.0879,-5.0923,-5.0985,-5.1014,-5.1085,-5.1124,-5.1179,-5.1199,-5.1159,-5.1316,-5.1266,-5.1329,-5.1329,-5.1361,-5.1358,-5.1535,-5.1389,-5.1388,-5.1388,-5.1388,0,-5.0567,-5.0652,-5.0687,-5.0746,-5.0841,-5.0857,-5.095,-5.098,-5.1028,-5.1094,-5.1091,-5.1152,-5.1176,-5.1241,-5.1258,-5.1352,-5.137,-5.1384,-5.1387,-5.1383,-5.1381,-5.1407,-5.1398,-5.1393,-5.1392,-5.1391,-5.139,0,-5.0684,-5.0711,-5.0817,-5.0876,-5.0893,-5.096,-5.1011,-5.1069,-5.1093,-5.1176,-5.1196,-5.1235,-5.1312,-5.1337,-5.1431,-5.1442,-5.1552,-5.1549,-5.1532,-5.1532,-5.1594,-5.1587,-5.1791,-5.1819,-5.1656,-5.1658,-5.1659,0,-5.077,-5.0834,-5.0901,-5.0944,-5.0978,-5.1048,-5.1094,-5.1113,-5.116,-5.123,-5.128,-5.1356,-5.1418,-5.1542,-5.1578,-5.1649,-5.1647,-5.1714,-5.1657,-5.1651,-5.1646,-5.1641,-5.1647,-5.1723,-5.1725,-5.1726,-5.1727,0,-5.0918,-5.0928,-5.0993,-5.1064,-5.1118,-5.1174,-5.1228,-5.1265,-5.1292,-5.1345,-5.1424,-5.1472,-5.1567,-5.1643,-5.1716,-5.1749,-5.1743,-5.1745,-5.1763,-5.1759,-5.1746,-5.1753,-5.1559,-5.174,-5.1739,-5.1738,-5.1737,-5.1737,-5.1021,-5.1077,-5.1133,-5.1206,-5.1249,-5.13,-5.1357,-5.1389,-5.1454,-5.1533,-5.1541,-5.1626,-5.1681,-5.1779,-5.1816,-5.1882,-5.1864,-5.189,-5.1897,-5.1902,-5.1906,-5.1738,-5.1896,-5.1896,-5.1896,-5.1895,-5.1895,0,-5.1167,-5.1203,-5.127,-5.1346,-5.1403,-5.1393,-5.1453,-5.1501,-5.1576,-5.1628,-5.1689,-5.178,-5.1853,-5.1896,-5.197,-5.2015,-5.2014,-5.2033,-5.2029,-5.2037,-5.192,-5.1896,-5.2033,-5.2033,-5.2033,-5.2033,-5.2033,-5.2033,-5.125,-5.1345,-5.1362,-5.1479,-5.1514,-5.1596,-5.1631,-5.1679,-5.1721,-5.1821,-5.1882,-5.191,-5.1959,-5.2036,-5.2103,-5.2114,-5.214,-5.2162,-5.217,-5.2059,-5.2045,-5.2032,-5.2009,-5.2168,-5.2168,-5.2282,-5.2283,-5.2283]},{"header":{"parameterUnit":"m.s-1","parameterCategory":1,"la1":30.2991,"la2":30.254,"lo1":-89.0895,"lo2":-89.0444,"dy":0.0017,"dx":0.0017,"nx":28,"ny":28,"refTime":"2024-04-15T09:00:00:Z","depth":0,"parameterNumber":3,"parameterNumberName":"V-component_of_WINDS"},"data":[0,0,0,0,0,0,0,0,0,0,0,0,0,0,0,0,0,0,0,0,0,0,0,0,0,0,0,0,0,0,0,0,0,0,0,0,0,0,0,0,0,0,0,0,0,0,0,0,0,0,0,0,0,0,0,0,0,0,3.7036,3.7036,0,3.7035,3.7035,3.7035,3.6997,3.6996,3.6995,3.6994,3.6993,3.6993,3.6994,0,0,0,0,0,0,0,0,0,0,0,0,0,3.7005,3.7006,3.7036,3.7036,3.7036,3.7035,3.7035,3.7035,3.6997,3.6996,3.6995,3.6993,3.6992,3.6993,3.6994,0,0,0,0,0,0,0,0,0,0,0,0,0,3.7013,3.7006,3.7036,3.7017,3.7015,3.7035,3.7035,3.7035,3.6997,3.6996,3.6994,3.6993,3.6992,3.6993,3.6994,3.7032,0,0,3.6998,3.6999,0,0,0,0,0,0,0,0,3.7012,3.7014,3.702,3.7018,3.7016,3.7014,3.7023,3.7034,3.6998,3.7004,3.6994,3.6992,3.7001,3.7001,3.7004,3.7032,3.7032,3.6999,3.6999,3.7,3.7,0,0,0,0,0,0,0,3.7012,3.7014,3.7035,3.702,3.7018,3.7008,3.7008,3.7025,3.7011,3.7003,3.7001,3.7001,3.7,3.7003,3.7004,3.7032,3.6999,3.7,3.7001,3.7001,3.7091,3.7093,0,0,0,0,0,0,3.7014,3.7014,3.7035,3.7035,3.7011,3.701,3.701,3.7017,3.701,3.7008,3.7002,3.6999,3.7002,3.7003,3.7004,3.7048,3.7,3.7001,3.7002,3.709,3.7092,3.7093,0,0,0,0,0,0,3.7014,3.7016,3.7035,3.7024,3.7025,3.7012,3.702,3.7017,3.7021,3.701,3.7007,3.7009,3.7001,3.7002,3.7026,3.7048,3.7002,3.7003,3.7088,3.709,3.7092,3.7137,0,0,0,0,0,0,3.7013,3.7016,3.703,3.7024,3.7026,3.7057,3.7022,3.7018,3.7023,3.7019,3.7015,3.7013,3.7,3.7024,3.7027,3.7049,3.7004,3.7086,3.7089,3.7092,3.7133,3.714,3.7147,0,0,0,0,0,3.7012,3.7043,3.7031,3.7034,3.7044,3.7059,3.706,3.7044,3.7025,3.7039,3.7032,3.7013,3.7045,3.7027,3.703,3.7052,3.7084,3.7088,3.7091,3.713,3.7139,3.7146,0,0,0,0,0,0,3.7051,3.7042,3.7029,3.7059,3.706,3.7052,3.7069,3.7054,3.706,3.7056,3.7036,3.7036,3.7062,3.7059,3.7039,3.7089,3.7061,3.7066,3.709,3.7098,3.7104,3.7105,3.7005,0,0,0,0,0,3.7064,3.7077,3.7067,3.7095,3.7096,3.7083,3.7089,3.7077,3.7077,3.7077,3.7072,3.7073,3.7083,3.709,3.7099,3.7133,3.7132,3.715,3.7156,3.7162,3.7166,3.7184,3.7193,3.7105,3.7105,3.7105,0,0,3.7089,3.7085,3.7095,3.7102,3.7102,3.7116,3.7083,3.7099,3.711,3.7079,3.7102,3.7098,3.7098,3.7127,3.7139,3.7125,3.719,3.7166,3.7171,3.7172,3.7189,3.7197,3.7205,3.7108,3.7107,3.7107,0,0,3.7142,3.7141,3.7164,3.7164,3.7164,3.7155,3.7161,3.7155,3.7152,3.7174,3.7152,3.7164,3.7182,3.7183,3.7186,3.7241,3.7223,3.7244,3.7279,3.7297,3.7304,3.731,3.733,3.7337,3.7248,3.7248,3.7248,0,3.7174,3.7194,3.7177,3.7195,3.72,3.7173,3.7197,3.7198,3.72,3.7204,3.7188,3.7211,3.7209,3.7238,3.7252,3.7255,3.7261,3.7244,3.7304,3.731,3.7315,3.7334,3.7342,3.7251,3.725,3.725,3.725,0,3.7233,3.7248,3.7266,3.727,3.7277,3.7297,3.7284,3.7292,3.728,3.7273,3.7296,3.7293,3.7301,3.7307,3.7294,3.7335,3.7326,3.7307,3.7279,3.7326,3.7344,3.7351,3.7254,3.7253,3.7253,3.7252,0,0,3.7311,3.7306,3.7313,3.7315,3.7313,3.7324,3.7344,3.7352,3.736,3.7363,3.7379,3.7395,3.7378,3.7382,3.7369,3.7385,3.743,3.7365,3.7365,3.7378,3.7475,3.7489,3.7498,3.7418,3.742,3.7421,3.7475,0,3.7364,3.7397,3.7383,3.7417,3.7431,3.7407,3.7424,3.7425,3.7419,3.7429,3.7423,3.7435,3.7411,3.7413,3.7428,3.7422,3.7449,3.7417,3.7434,3.7434,3.7435,3.7507,3.7522,3.7573,3.7482,3.7483,3.7484,0,3.7429,3.7435,3.7472,3.7468,3.7473,3.7489,3.7496,3.7506,3.7507,3.7502,3.7506,3.749,3.7509,3.7481,3.7508,3.7486,3.7492,3.749,3.7492,3.7493,3.7462,3.751,3.7589,3.7597,3.7494,3.7493,3.7492,0,3.7483,3.7501,3.7525,3.7527,3.7523,3.7535,3.7534,3.7533,3.7539,3.7545,3.7549,3.7557,3.7562,3.7568,3.7555,3.7536,3.7584,3.7555,3.758,3.7581,3.7592,3.7591,3.7673,3.7595,3.7595,3.7594,3.7594,0,3.7544,3.7567,3.7549,3.7564,3.759,3.7573,3.7599,3.7595,3.7595,3.7609,3.7588,3.7601,3.7583,3.7595,3.7585,3.7609,3.7611,3.7607,3.7604,3.761,3.761,3.7613,3.761,3.7596,3.7596,3.7596,3.7595,0,3.7609,3.7598,3.7623,3.7617,3.7617,3.7636,3.7631,3.7645,3.7638,3.7656,3.7659,3.7648,3.7661,3.7648,3.766,3.7654,3.7686,3.7677,3.7686,3.7684,3.771,3.7708,3.7797,3.7808,3.7723,3.7723,3.7724,0,3.7648,3.7666,3.7662,3.7671,3.7671,3.7684,3.769,3.7675,3.7682,3.7685,3.7698,3.7709,3.7718,3.7739,3.7732,3.7742,3.7734,3.7764,3.7735,3.774,3.7735,3.7734,3.7736,3.777,3.7771,3.7772,3.7773,0,3.7719,3.7713,3.7723,3.7732,3.774,3.7746,3.775,3.7758,3.7742,3.7751,3.7765,3.7771,3.7784,3.7795,3.7802,3.7801,3.7785,3.7782,3.7789,3.7794,3.7799,3.7797,3.7703,3.778,3.7779,3.7779,3.7778,3.7778,3.7773,3.7788,3.7789,3.7801,3.7802,3.7807,3.782,3.7814,3.7825,3.7834,3.7824,3.7841,3.7841,3.7849,3.785,3.7863,3.785,3.7859,3.7862,3.7864,3.7869,3.7796,3.7864,3.7864,3.7864,3.7863,3.7863,0,3.7844,3.7843,3.7855,3.7862,3.7871,3.7855,3.7859,3.7868,3.7883,3.7885,3.7894,3.7909,3.792,3.7914,3.7924,3.7935,3.7928,3.7938,3.7938,3.7938,3.7879,3.7873,3.7944,3.7944,3.7944,3.7944,3.7944,3.7944,3.7882,3.7907,3.7901,3.7926,3.7925,3.7941,3.7945,3.7949,3.7951,3.7969,3.7978,3.7974,3.7973,3.7983,3.7993,3.7991,3.7996,3.8009,3.8004,3.795,3.7942,3.7934,3.7928,3.801,3.801,3.8062,3.8062,3.8063]}]]